METAR LOCAUX

2020/04/02 22:30 LFST 022230Z AUTO 30010KT CAVOK 07/M01 Q1014 NOSIG
2020/04/02 22:20 EDSB 022220Z AUTO 20003KT 170V240 9999 NCD 05/M02 Q1014
2020/04/02 22:30 LFGA 022230Z AUTO 28009KT CAVOK 08/M02 Q1014
www.noaa.gov

Ne pas utiliser pour préparer ou effectuer un vol: Utilisez la documentation officielle disponible sur aviation.meteo.fr (Aéroweb)


"Le soleil du matin ne dure pas forcément toute la journée."

Animation satellite IR

Meteociel.fr

"Derrière chaque nuage se cache le ciel bleu."

Radar pluie

Infoclimat.fr

"Si tu veux l’arc-en-ciel, tu dois supporter la pluie."
Dolly Parton

Nébulosité (octas)

Meteociel.fr

"Le soleil est souvent obscurci par les nuages et la raison par les passions."
Démophile

Impacts de foudre

www.meteo60.fr

"Celui que frappe la foudre n'entend pas le tonnerre."

Vigilance météo

vigilance-meteo.fr

"Tout nuage n'enfante pas une tempête."
William Shakespeare

TAF locaux

2020/04/02 18:22 TAF LFST 021700Z 0218/0318 32008KT CAVOK
2020/04/02 22:33 TAF TAF EDSB 022223Z 0222/0318 CNL
www.noaa.gov

Ne pas utiliser pour préparer ou effectuer un vol: Utilisez la documentation officielle disponible sur aviation.meteo.fr (Aéroweb)


"Les jours où le ciel est gris, le soleil n'a pas disparu à tout jamais."
Arnaud Desjardins

Prévisions 7 jours


Meteoblue.com

"Quand les crapauds chantent, le beau temps s'avance !"